,,PA_Meas_PMT16A,,PR_Meas_QMR101_102,,RH_Meas_QMH101,,SR_Meas_QMS101,,TA_Meas_QMH101,,GenWind,,GenWind,
time,status,PA,status,PR,status,RH,status,SR,status,TA,status,DirAvg,status,SpdAvg,
2011-02-14, 00:00:05,VALID,916.399,VALID,0,VALID,97.0385,VALID,0,VALID,20.1888,VALID,161,VALID,0,
2011-02-14, 00:01:05,VALID,916.39,VALID,0,VALID,97.0385,VALID,0,VALID,20.2083,VALID,161,VALID,0,
2011-02-14, 00:02:05,VALID,916.394,VALID,0,VALID,97.0461,VALID,0,VALID,20.2083,VALID,161,VALID,0,
2011-02-14, 00:03:05,VALID,916.388,VALID,0,VALID,97.0232,VALID,0,VALID,20.2293,VALID,161,VALID,0,
2011-02-14, 00:04:05,VALID,916.396,VALID,0,VALID,97.008,VALID,0,VALID,20.1693,VALID,161,VALID,0.490625,
2011-02-14, 00:05:05,VALID,916.375,VALID,0,VALID,96.9698,VALID,0,VALID,20.1303,VALID,161,VALID,0.672266,
2011-02-14, 00:06:05,VALID,916.391,VALID,0,VALID,96.9698,VALID,0,VALID,20.1108,VALID,161,VALID,0.630469,
2011-02-14, 00:07:05,VALID,916.377,VALID,0,VALID,97.0385,VALID,0,VALID,20.1303,VALID,161,VALID,0.782031,
2011-02-14, 00:08:05,VALID,916.383,VALID,0,VALID,96.9241,VALID,0,VALID,20.1303,VALID,161,VALID,0.893359,
2011-02-14, 00:09:05,VALID,916.381,VALID,0,VALID,96.9927,VALID,0,VALID,20.0733,VALID,161,VALID,1.01289,
2011-02-14, 00:10:05,VALID,916.35,VALID,0,VALID,96.9851,VALID,0,VALID,20.0343,VALID,161,VALID,1.1332,
2011-02-14, 00:11:05,VALID,916.356,VALID,0,VALID,97.0537,VALID,0,VALID,20.0928,VALID,161,VALID,1.04805,
2011-02-14, 00:12:05,VALID,916.371,VALID,0,VALID,97.0537,VALID,0,VALID,20.0523,VALID,161,VALID,0.973828,
2011-02-14, 00:13:05,VALID,916.368,VALID,0,VALID,97.0156,VALID,0,VALID,20.0523,VALID,161,VALID,0.694922,
2011-02-14, 00:14:05,VALID,916.353,VALID,0,VALID,97.0156,VALID,0,VALID,20.0733,VALID,161,VALID,0.678125,
2011-02-14, 00:15:05,VALID,916.332,VALID,0,VALID,97.0156,VALID,0,VALID,20.0733,VALID,161,VALID,0.556641,
2011-02-14, 00:16:04,VALID,916.323,VALID,0,VALID,97.0842,VALID,0,VALID,20.0718,VALID,161,VALID,0.58125,
2011-02-14, 00:17:04,VALID,916.344,VALID,0,VALID,97.0766,VALID,0,VALID,20.0913,VALID,161,VALID,0.458203,
2011-02-14, 00:18:04,VALID,916.344,VALID,0,VALID,97.0766,VALID,0,VALID,20.1123,VALID,161,VALID,0.441406,
2011-02-14, 00:19:04,VALID,916.319,VALID,0,VALID,97.069,VALID,0,VALID,20.1318,VALID,161,VALID,0.542969,
2011-02-14, 00:20:04,VALID,916.299,VALID,0,VALID,97.069,VALID,0,VALID,20.1513,VALID,161,VALID,0.576953,
2011-02-14, 00:21:04,VALID,916.336,VALID,0,VALID,97.0766,VALID,0,VALID,20.1708,VALID,161,VALID,0.548437,
2011-02-14, 00:22:04,VALID,916.305,VALID,0,VALID,97.069,VALID,0,VALID,20.1903,VALID,161,VALID,0.328125,
2011-02-14, 00:23:04,VALID,916.294,VALID,0,VALID,97.0537,VALID,0,VALID,20.1498,VALID,161,VALID,0.540625,
2011-02-14, 00:24:04,VALID,916.295,VALID,0,VALID,97.0537,VALID,0,VALID,20.1303,VALID,161,VALID,0.694531,
2011-02-14, 00:25:04,VALID,916.304,VALID,0,VALID,97.0613,VALID,0,VALID,20.1318,VALID,161,VALID,0.541797,
2011-02-14, 00:26:04,VALID,916.272,VALID,0,VALID,97.0537,VALID,0,VALID,20.1318,VALID,161,VALID,0.258984,
2011-02-14, 00:27:04,VALID,916.231,VALID,0,VALID,97.0613,VALID,0,VALID,20.1318,VALID,161,VALID,0.394141,
2011-02-14, 00:28:04,VALID,916.239,VALID,0,VALID,97.0613,VALID,0,VALID,20.1108,VALID,161,VALID,0.474219,
2011-02-14, 00:29:04,VALID,916.249,VALID,0,VALID,97.069,VALID,0,VALID,20.1303,VALID,161,VALID,0.917188,
2011-02-14, 00:30:04,VALID,916.274,VALID,0,VALID,97.069,VALID,0,VALID,20.1903,VALID,161,VALID,0.586719,
2011-02-14, 00:31:04,VALID,916.267,VALID,0,VALID,97.069,VALID,0,VALID,20.1888,VALID,161,VALID,0.635938,
2011-02-14, 00:32:04,VALID,916.215,VALID,0,VALID,97.069,VALID,0,VALID,20.1888,VALID,161,VALID,0.721484,
2011-02-14, 00:33:04,VALID,916.233,VALID,0,VALID,97.069,VALID,0,VALID,20.1693,VALID,161,VALID,0.574609,
2011-02-14, 00:34:04,VALID,916.222,VALID,0,VALID,97.0461,VALID,0,VALID,20.1303,VALID,161,VALID,0.857422,
2011-02-14, 00:35:04,VALID,916.241,VALID,0,VALID,97.069,VALID,0,VALID,20.1123,VALID,161,VALID,0.871094,
2011-02-14, 00:36:04,VALID,916.187,VALID,0,VALID,97.0537,VALID,0,VALID,20.0913,VALID,161,VALID,0.501562,
2011-02-14, 00:37:04,VALID,916.181,VALID,0,VALID,97.069,VALID,0,VALID,20.0928,VALID,161,VALID,0.0621094,
2011-02-14, 00:38:04,VALID,916.179,VALID,0,VALID,97.0461,VALID,0,VALID,20.0718,VALID,161,VALID,0.604688,
2011-02-14, 00:39:04,VALID,916.159,VALID,0,VALID,97.0537,VALID,0,VALID,20.0733,VALID,161,VALID,0.630859,
2011-02-14, 00:40:04,VALID,916.131,VALID,0,VALID,97.0537,VALID,0,VALID,20.0733,VALID,161,VALID,0.556641,
2011-02-14, 00:41:04,VALID,916.142,VALID,0,VALID,97.0537,VALID,0,VALID,20.0733,VALID,161,VALID,0.115625,
2011-02-14, 00:42:04,VALID,916.112,VALID,0,VALID,97.0461,VALID,0,VALID,20.0133,VALID,161,VALID,0.635156,
2011-02-14, 00:43:04,VALID,916.086,VALID,0,VALID,97.0461,VALID,0,VALID,19.9938,VALID,161,VALID,0.65625,
2011-02-14, 00:44:04,VALID,916.086,VALID,0,VALID,97.0537,VALID,0,VALID,19.9953,VALID,161,VALID,0.769922,
2011-02-14, 00:45:04,VALID,916.083,VALID,0,VALID,97.0766,VALID,0.107441,VALID,20.0148,VALID,161,VALID,0.835156,
2011-02-14, 00:46:04,VALID,916.077,VALID,0,VALID,97.0918,VALID,0,VALID,19.9743,VALID,130,VALID,0.602734,
2011-02-14, 00:47:04,VALID,916.04,VALID,0,VALID,97.0613,VALID,0,VALID,19.9548,VALID,130,VALID,0.423438,
2011-02-14, 00:48:04,VALID,916.049,VALID,0,VALID,97.0842,VALID,0,VALID,19.9548,VALID,130,VALID,0.780469,
2011-02-14, 00:49:04,VALID,916.055,VALID,0,VALID,97.0918,VALID,0,VALID,19.9758,VALID,129,VALID,0.410937,
2011-02-14, 00:50:04,VALID,916.048,VALID,0,VALID,97.0613,VALID,0,VALID,19.9548,VALID,129,VALID,0.274219,
2011-02-14, 00:51:04,VALID,916.047,VALID,0,VALID,97.0918,VALID,0,VALID,19.9353,VALID,130,VALID,0.619922,
2011-02-14, 00:52:04,VALID,916.042,VALID,0,VALID,97.0842,VALID,0,VALID,19.9743,VALID,130,VALID,0.927344,
2011-02-14, 00:53:04,VALID,916.022,VALID,0,VALID,97.1147,VALID,0,VALID,19.9758,VALID,130,VALID,0.683984,
2011-02-14, 00:54:04,VALID,915.992,VALID,0,VALID,97.1147,VALID,0,VALID,19.9548,VALID,130,VALID,0.651563,
2011-02-14, 00:55:04,VALID,915.997,VALID,0,VALID,97.0766,VALID,0,VALID,19.9743,VALID,130,VALID,0.432422,
2011-02-14, 00:56:04,VALID,915.955,VALID,0,VALID,97.0994,VALID,0.107441,VALID,19.9953,VALID,129,VALID,0.727344,
2011-02-14, 00:57:04,VALID,915.929,VALID,0,VALID,97.0918,VALID,0,VALID,19.9743,VALID,129,VALID,0.750391,
2011-02-14, 00:58:04,VALID,915.935,VALID,0,VALID,97.0918,VALID,0,VALID,19.9953,VALID,130,VALID,0.646094,
2011-02-14, 00:59:04,VALID,915.915,VALID,0,VALID,97.0918,VALID,0,VALID,19.9953,VALID,129,VALID,0.667969,
2011-02-14, 01:00:04,VALID,915.922,VALID,0,VALID,97.0994,VALID,0,VALID,19.9953,VALID,129,VALID,0.680078,
2011-02-14, 01:01:04,VALID,915.902,VALID,0,VALID,97.0766,VALID,0,VALID,19.9953,VALID,129,VALID,0.642969,
2011-02-14, 01:02:04,VALID,915.932,VALID,0,VALID,97.0918,VALID,0,VALID,20.0148,VALID,130,VALID,0.791016,
2011-02-14, 01:03:04,VALID,915.941,VALID,0,VALID,97.0918,VALID,0,VALID,20.0148,VALID,129,VALID,0.759766,
2011-02-14, 01:04:04,VALID,915.978,VALID,0,VALID,97.0994,VALID,0,VALID,20.0148,VALID,129,VALID,1.02617,
2011-02-14, 01:05:04,VALID,915.984,VALID,0,VALID,97.1147,VALID,0,VALID,20.0343,VALID,130,VALID,0.922656,
2011-02-14, 01:06:04,VALID,915.944,VALID,0,VALID,97.0918,VALID,0,VALID,20.0343,VALID,130,VALID,0.652344,
2011-02-14, 01:07:04,VALID,915.935,VALID,0,VALID,97.0842,VALID,0,VALID,20.0328,VALID,142,VALID,0.710938,
2011-02-14, 01:08:04,VALID,915.914,VALID,0,VALID,97.0994,VALID,0,VALID,20.0343,VALID,142,VALID,0.816406,
2011-02-14, 01:09:04,VALID,915.915,VALID,0,VALID,97.0918,VALID,0,VALID,20.0148,VALID,142,VALID,0.746875,
2011-02-14, 01:10:04,VALID,915.873,VALID,0,VALID,97.0537,VALID,0,VALID,19.9938,VALID,141,VALID,0.81875,
2011-02-14, 01:11:04,VALID,915.862,VALID,0,VALID,97.0385,VALID,0,VALID,19.9563,VALID,117,VALID,1.02422,
2011-02-14, 01:12:04,VALID,915.851,VALID,0,VALID,97.0232,VALID,0,VALID,19.9563,VALID,114,VALID,1.10547,
2011-02-14, 01:13:04,VALID,915.862,VALID,0,VALID,97.0766,VALID,0,VALID,19.9743,VALID,113,VALID,1.31641,
2011-02-14, 01:14:04,VALID,915.858,VALID,0,VALID,97.0994,VALID,0,VALID,19.9743,VALID,113,VALID,0.976172,
2011-02-14, 01:15:04,VALID,915.816,VALID,0,VALID,97.069,VALID,0,VALID,19.9953,VALID,135,VALID,1.08984,
2011-02-14, 01:16:04,VALID,915.811,VALID,0,VALID,97.0537,VALID,0,VALID,19.9953,VALID,131,VALID,1.12344,
2011-02-14, 01:17:04,VALID,915.8,VALID,0,VALID,97.069,VALID,0,VALID,19.9548,VALID,143,VALID,0.848437,
2011-02-14, 01:18:04,VALID,915.777,VALID,0,VALID,97.069,VALID,0,VALID,19.9158,VALID,132,VALID,1.10703,
2011-02-14, 01:19:04,VALID,915.739,VALID,0,VALID,97.0537,VALID,0,VALID,19.9563,VALID,123,VALID,1.2332,
2011-02-14, 01:20:04,VALID,915.701,VALID,0,VALID,97.0613,VALID,0,VALID,19.9368,VALID,129,VALID,0.755469,
2011-02-14, 01:21:04,VALID,915.689,VALID,0,VALID,97.0766,VALID,0,VALID,19.9353,VALID,131,VALID,1.66055,
2011-02-14, 01:22:04,VALID,915.667,VALID,0,VALID,97.0613,VALID,0,VALID,19.9563,VALID,130,VALID,0.898047,
2011-02-14, 01:23:04,VALID,915.658,VALID,0,VALID,97.0613,VALID,0,VALID,19.9563,VALID,118,VALID,0.853906,
2011-02-14, 01:24:04,VALID,915.626,VALID,0,VALID,97.0766,VALID,0,VALID,19.9353,VALID,137,VALID,1.14922,
2011-02-14, 01:25:04,VALID,915.628,VALID,0,VALID,97.0918,VALID,0,VALID,19.9563,VALID,155,VALID,1.10664,
2011-02-14, 01:26:04,VALID,915.642,VALID,0,VALID,97.0918,VALID,0,VALID,19.9353,VALID,155,VALID,0.778516,
2011-02-14, 01:27:04,VALID,915.63,VALID,0,VALID,97.1071,VALID,0,VALID,19.9563,VALID,128,VALID,0.960547,
2011-02-14, 01:28:04,VALID,915.619,VALID,0,VALID,97.0994,VALID,0,VALID,19.9353,VALID,126,VALID,0.837891,
2011-02-14, 01:29:04,VALID,915.644,VALID,0,VALID,97.0918,VALID,0,VALID,19.9158,VALID,126,VALID,0.99375,
2011-02-14, 01:30:04,VALID,915.587,VALID,0,VALID,97.0918,VALID,0,VALID,19.9158,VALID,126,VALID,1.06641,
2011-02-14, 01:31:04,VALID,915.599,VALID,0,VALID,97.0918,VALID,0.107441,VALID,19.9368,VALID,126,VALID,1.10586,
2011-02-14, 01:32:04,VALID,915.584,VALID,0,VALID,97.1147,VALID,0,VALID,19.9563,VALID,126,VALID,0.832031,
2011-02-14, 01:33:04,VALID,915.542,VALID,0,VALID,97.0994,VALID,0,VALID,19.9563,VALID,126,VALID,0.964453,
2011-02-14, 01:34:04,VALID,915.531,VALID,0,VALID,97.0994,VALID,0,VALID,19.9368,VALID,126,VALID,0.985156,
2011-02-14, 01:35:04,VALID,915.538,VALID,0,VALID,97.0994,VALID,0,VALID,19.9353,VALID,126,VALID,0.828906,
2011-02-14, 01:36:04,VALID,915.503,VALID,0,VALID,97.1299,VALID,0,VALID,19.9758,VALID,126,VALID,1.02305,
2011-02-14, 01:37:04,VALID,915.456,VALID,0,VALID,97.1071,VALID,0,VALID,19.9563,VALID,126,VALID,0.637891,
2011-02-14, 01:38:04,VALID,915.469,VALID,0,VALID,97.0994,VALID,0,VALID,19.9563,VALID,126,VALID,0.713672,
2011-02-14, 01:39:04,VALID,915.44,VALID,0,VALID,97.1071,VALID,0.107441,VALID,19.8963,VALID,174,VALID,0.645312,
2011-02-14, 01:40:04,VALID,915.412,VALID,0,VALID,97.1071,VALID,0,VALID,19.9173,VALID,148,VALID,0.838281,
2011-02-14, 01:41:04,VALID,915.374,VALID,0,VALID,97.0994,VALID,0,VALID,19.9158,VALID,148,VALID,0.751953,
2011-02-14, 01:42:04,VALID,915.356,VALID,0,VALID,97.0842,VALID,0,VALID,19.8963,VALID,148,VALID,0.623828,
2011-02-14, 01:43:04,VALID,915.356,VALID,0,VALID,97.0918,VALID,0,VALID,19.8768,VALID,148,VALID,0.761719,
2011-02-14, 01:44:04,VALID,915.358,VALID,0,VALID,97.0766,VALID,0,VALID,19.8978,VALID,148,VALID,0.655469,
2011-02-14, 01:45:04,VALID,915.385,VALID,0,VALID,97.0994,VALID,0,VALID,19.8978,VALID,148,VALID,0.694141,
2011-02-14, 01:46:04,VALID,915.364,VALID,0,VALID,97.1147,VALID,0,VALID,19.9368,VALID,149,VALID,0.695313,
2011-02-14, 01:47:04,VALID,915.372,VALID,0,VALID,97.1147,VALID,0,VALID,19.9173,VALID,149,VALID,0.564453,
2011-02-14, 01:48:04,VALID,915.382,VALID,0,VALID,97.1299,VALID,0,VALID,19.8963,VALID,149,VALID,0.455859,
2011-02-14, 01:49:04,VALID,915.368,VALID,0,VALID,97.1223,VALID,0,VALID,19.9158,VALID,149,VALID,0.741406,
2011-02-14, 01:50:04,VALID,915.407,VALID,0,VALID,97.1223,VALID,0,VALID,19.8963,VALID,149,VALID,0.691797,
2011-02-14, 01:51:04,VALID,915.424,VALID,0,VALID,97.1223,VALID,0,VALID,19.9173,VALID,149,VALID,0.420703,
2011-02-14, 01:52:04,VALID,915.383,VALID,0,VALID,97.1376,VALID,0,VALID,19.9173,VALID,149,VALID,0.662891,
2011-02-14, 01:53:04,VALID,915.382,VALID,0,VALID,97.1376,VALID,0,VALID,19.9353,VALID,149,VALID,0.476953,
2011-02-14, 01:54:04,VALID,915.329,VALID,0,VALID,97.1376,VALID,0,VALID,19.9353,VALID,149,VALID,0.495313,
2011-02-14, 01:55:04,VALID,915.367,VALID,0,VALID,97.1376,VALID,0,VALID,19.9563,VALID,149,VALID,0.502734,
2011-02-14, 01:56:04,VALID,915.316,VALID,0,VALID,97.1299,VALID,0,VALID,19.9548,VALID,149,VALID,0.579297,
2011-02-14, 01:57:04,VALID,915.315,VALID,0,VALID,97.1299,VALID,0,VALID,19.9953,VALID,149,VALID,0.599219,
2011-02-14, 01:58:04,VALID,915.303,VALID,0,VALID,97.1071,VALID,0,VALID,19.9953,VALID,149,VALID,0.470703,
2011-02-14, 01:59:04,VALID,915.293,VALID,0,VALID,97.1452,VALID,0,VALID,20.0148,VALID,149,VALID,0.580469,
2011-02-14, 02:00:04,VALID,915.315,VALID,0,VALID,97.1528,VALID,0,VALID,20.0148,VALID,149,VALID,0.670313,
2011-02-14, 02:01:04,VALID,915.297,VALID,0,VALID,97.1452,VALID,0,VALID,19.9938,VALID,149,VALID,0.274609,
2011-02-14, 02:02:04,VALID,915.27,VALID,0,VALID,97.1147,VALID,0,VALID,20.0148,VALID,150,VALID,0.279297,
2011-02-14, 02:03:04,VALID,915.254,VALID,0,VALID,97.1299,VALID,0,VALID,20.0148,VALID,150,VALID,0.852344,
2011-02-14, 02:04:04,VALID,915.245,VALID,0,VALID,97.1223,VALID,0,VALID,20.0148,VALID,150,VALID,0.782812,
2011-02-14, 02:05:04,VALID,915.23,VALID,0,VALID,97.1147,VALID,0,VALID,19.9953,VALID,150,VALID,0.781641,
2011-02-14, 02:06:04,VALID,915.228,VALID,0,VALID,97.1147,VALID,0,VALID,20.0148,VALID,150,VALID,1.07617,
2011-02-14, 02:07:04,VALID,915.181,VALID,0,VALID,97.0842,VALID,0,VALID,20.0148,VALID,150,VALID,0.505078,
2011-02-14, 02:08:04,VALID,915.167,VALID,0,VALID,97.1071,VALID,0,VALID,20.0343,VALID,150,VALID,0.372656,
2011-02-14, 02:09:04,VALID,915.187,VALID,0,VALID,97.1071,VALID,0,VALID,19.9938,VALID,165,VALID,0.745313,
2011-02-14, 02:10:04,VALID,915.174,VALID,0,VALID,97.0994,VALID,0,VALID,19.9563,VALID,166,VALID,0.599609,
2011-02-14, 02:11:04,VALID,915.172,VALID,0,VALID,97.0918,VALID,0,VALID,19.9368,VALID,166,VALID,0.9125,
2011-02-14, 02:12:04,VALID,915.188,VALID,0,VALID,97.0766,VALID,0,VALID,19.8768,VALID,159,VALID,1.16641,
2011-02-14, 02:13:04,VALID,915.184,VALID,0,VALID,97.0766,VALID,0,VALID,19.8783,VALID,155,VALID,0.808594,
2011-02-14, 02:14:04,VALID,915.209,VALID,0,VALID,97.0842,VALID,0,VALID,19.8588,VALID,155,VALID,0.537109,
2011-02-14, 02:15:04,VALID,915.209,VALID,0,VALID,97.1147,VALID,0,VALID,19.8378,VALID,155,VALID,0.826172,
2011-02-14, 02:16:04,VALID,915.169,VALID,0,VALID,97.0994,VALID,0,VALID,19.8393,VALID,155,VALID,1.02461,
2011-02-14, 02:17:04,VALID,915.185,VALID,0,VALID,97.1299,VALID,0.107441,VALID,19.8378,VALID,162,VALID,1.30195,
2011-02-14, 02:18:04,VALID,915.136,VALID,0,VALID,97.1299,VALID,0.107441,VALID,19.8768,VALID,163,VALID,1.325,
2011-02-14, 02:19:04,VALID,915.128,VALID,0,VALID,97.1452,VALID,0,VALID,19.8963,VALID,163,VALID,1.10586,
2011-02-14, 02:20:04,VALID,915.117,VALID,0,VALID,97.1376,VALID,0,VALID,19.9158,VALID,173,VALID,0.846875,
2011-02-14, 02:21:04,VALID,915.079,VALID,0,VALID,97.1376,VALID,0.107441,VALID,19.9158,VALID,167,VALID,0.874609,
2011-02-14, 02:22:04,VALID,915.081,VALID,0,VALID,97.1376,VALID,0.107441,VALID,19.9143,VALID,148,VALID,1.00156,
2011-02-14, 02:23:04,VALID,915.076,VALID,0,VALID,97.1223,VALID,0,VALID,19.9353,VALID,135,VALID,1.17852,
2011-02-14, 02:24:04,VALID,915.036,VALID,0,VALID,97.1071,VALID,0.107441,VALID,19.9158,VALID,151,VALID,0.773828,
2011-02-14, 02:25:04,VALID,915.035,VALID,0,VALID,97.0766,VALID,0.107441,VALID,19.8963,VALID,151,VALID,0.972656,
2011-02-14, 02:26:04,VALID,915.039,VALID,0,VALID,97.0613,VALID,0.107441,VALID,19.8768,VALID,151,VALID,0.732031,
2011-02-14, 02:27:04,VALID,915.031,VALID,0,VALID,97.0232,VALID,0.107441,VALID,19.8783,VALID,151,VALID,1.03984,
2011-02-14, 02:28:04,VALID,915.049,VALID,0,VALID,96.9851,VALID,0.107441,VALID,19.8378,VALID,151,VALID,0.927344,
2011-02-14, 02:29:04,VALID,915.027,VALID,0,VALID,97.0003,VALID,0.107441,VALID,19.7988,VALID,127,VALID,1.22422,
2011-02-14, 02:30:04,VALID,915.05,VALID,0,VALID,96.9622,VALID,0.107441,VALID,19.7988,VALID,124,VALID,0.975391,
2011-02-14, 02:31:04,VALID,915.021,VALID,0,VALID,96.9622,VALID,0.107441,VALID,19.7193,VALID,119,VALID,0.914844,
2011-02-14, 02:32:04,VALID,915.058,VALID,0,VALID,96.9546,VALID,0,VALID,19.7208,VALID,119,VALID,0.869531,
2011-02-14, 02:33:04,VALID,915.055,VALID,0,VALID,96.9927,VALID,0,VALID,19.7208,VALID,119,VALID,1.30586,
2011-02-14, 02:34:04,VALID,915.065,VALID,0,VALID,97.0003,VALID,0,VALID,19.7613,VALID,119,VALID,0.853516,
2011-02-14, 02:35:04,VALID,915.043,VALID,0,VALID,96.9775,VALID,0,VALID,19.7208,VALID,119,VALID,0.632422,
2011-02-14, 02:36:04,VALID,915.076,VALID,0,VALID,96.9394,VALID,0,VALID,19.7028,VALID,119,VALID,0.804297,
2011-02-14, 02:37:04,VALID,915.05,VALID,0,VALID,96.9775,VALID,0,VALID,19.6818,VALID,119,VALID,0.9875,
2011-02-14, 02:38:04,VALID,915.064,VALID,0,VALID,96.9775,VALID,0,VALID,19.7013,VALID,119,VALID,0.555469,
2011-02-14, 02:39:04,VALID,915.048,VALID,0,VALID,96.9775,VALID,0,VALID,19.7013,VALID,119,VALID,0.832422,
2011-02-14, 02:40:04,VALID,915.058,VALID,0,VALID,96.9165,VALID,0,VALID,19.6818,VALID,119,VALID,0.636719,
2011-02-14, 02:41:04,VALID,915.042,VALID,0,VALID,96.9089,VALID,0,VALID,19.6443,VALID,119,VALID,1.18828,
2011-02-14, 02:42:04,VALID,915.043,VALID,0,VALID,96.9317,VALID,0,VALID,19.6428,VALID,119,VALID,1.26133,
2011-02-14, 02:43:04,VALID,915.016,VALID,0,VALID,96.9546,VALID,0,VALID,19.6428,VALID,121,VALID,1.31328,
2011-02-14, 02:44:04,VALID,915.02,VALID,0,VALID,96.886,VALID,0,VALID,19.6428,VALID,121,VALID,1.06797,
2011-02-14, 02:45:04,VALID,915.042,VALID,0,VALID,96.9089,VALID,0,VALID,19.6038,VALID,121,VALID,0.682422,
2011-02-14, 02:46:04,VALID,915.061,VALID,0,VALID,96.8936,VALID,0,VALID,19.6053,VALID,121,VALID,0.791016,
2011-02-14, 02:47:04,VALID,915.027,VALID,0,VALID,96.9012,VALID,0.107441,VALID,19.6053,VALID,121,VALID,0.832422,
2011-02-14, 02:48:04,VALID,915.026,VALID,0,VALID,96.9012,VALID,0,VALID,19.5663,VALID,121,VALID,0.841406,
2011-02-14, 02:49:04,VALID,915.008,VALID,0,VALID,96.9317,VALID,0,VALID,19.5663,VALID,121,VALID,0.555469,
2011-02-14, 02:50:04,VALID,915.026,VALID,0,VALID,96.9317,VALID,0,VALID,19.5663,VALID,121,VALID,0.469922,
2011-02-14, 02:51:04,VALID,915.05,VALID,0,VALID,96.9546,VALID,0,VALID,19.5663,VALID,121,VALID,0.341016,
2011-02-14, 02:52:04,VALID,915.06,VALID,0,VALID,96.9546,VALID,0,VALID,19.5663,VALID,121,VALID,0.444141,
2011-02-14, 02:53:04,VALID,915.055,VALID,0,VALID,96.9775,VALID,0,VALID,19.5663,VALID,121,VALID,0.464063,
2011-02-14, 02:54:04,VALID,915.059,VALID,0,VALID,96.9851,VALID,0,VALID,19.5858,VALID,121,VALID,0.185937,
2011-02-14, 02:55:04,VALID,915.074,VALID,0,VALID,96.9775,VALID,0,VALID,19.5663,VALID,121,VALID,0.00664063,
2011-02-14, 02:56:04,VALID,915.075,VALID,0,VALID,96.9089,VALID,0,VALID,19.5063,VALID,121,VALID,0,
2011-02-14, 02:57:04,VALID,915.081,VALID,0,VALID,96.764,VALID,0,VALID,19.4283,VALID,121,VALID,0.41875,
2011-02-14, 02:58:04,VALID,915.051,VALID,0,VALID,96.8021,VALID,0,VALID,19.3518,VALID,121,VALID,0.380078,
2011-02-14, 02:59:04,VALID,915.039,VALID,0,VALID,96.9317,VALID,0,VALID,19.3518,VALID,121,VALID,0.855469,
2011-02-14, 03:00:04,VALID,915.091,VALID,0,VALID,96.9698,VALID,0,VALID,19.3518,VALID,121,VALID,0.967969,
2011-02-14, 03:01:04,VALID,915.091,VALID,0,VALID,97.008,VALID,0,VALID,19.3908,VALID,121,VALID,0.915234,
2011-02-14, 03:02:04,VALID,915.113,VALID,0,VALID,96.9927,VALID,0,VALID,19.3503,VALID,121,VALID,0.945313,
2011-02-14, 03:03:04,VALID,915.104,VALID,0,VALID,97.0308,VALID,0,VALID,19.3113,VALID,121,VALID,1.03281,
2011-02-14, 03:04:04,VALID,915.102,VALID,0,VALID,97.0385,VALID,0,VALID,19.3518,VALID,121,VALID,0.8125,
2011-02-14, 03:05:04,VALID,915.101,VALID,0,VALID,97.069,VALID,0,VALID,19.3518,VALID,121,VALID,0.696875,
2011-02-14, 03:06:04,VALID,915.058,VALID,0,VALID,97.1376,VALID,0,VALID,19.3698,VALID,121,VALID,0.679297,
2011-02-14, 03:07:04,VALID,915.035,VALID,0,VALID,97.1604,VALID,0,VALID,19.4478,VALID,121,VALID,0.5625,
2011-02-14, 03:08:04,VALID,915.049,VALID,0,VALID,97.1299,VALID,0,VALID,19.4493,VALID,121,VALID,0.495703,
2011-02-14, 03:09:04,VALID,915.023,VALID,0,VALID,97.0994,VALID,0,VALID,19.4283,VALID,121,VALID,0.963281,
2011-02-14, 03:10:04,VALID,915.01,VALID,0,VALID,97.1071,VALID,0,VALID,19.4493,VALID,121,VALID,0.63125,
2011-02-14, 03:11:04,VALID,915.012,VALID,0,VALID,97.069,VALID,0,VALID,19.3908,VALID,121,VALID,0.520703,
2011-02-14, 03:12:04,VALID,914.998,VALID,0,VALID,97.0613,VALID,0,VALID,19.4103,VALID,121,VALID,1.04492,
2011-02-14, 03:13:04,VALID,914.96,VALID,0,VALID,97.1223,VALID,0,VALID,19.3698,VALID,121,VALID,1.08359,
2011-02-14, 03:14:04,VALID,914.967,VALID,0,VALID,97.1147,VALID,0,VALID,19.3908,VALID,121,VALID,1.14922,
2011-02-14, 03:15:04,VALID,914.958,VALID,0,VALID,97.1452,VALID,0,VALID,19.4103,VALID,121,VALID,0.904297,
2011-02-14, 03:16:04,VALID,914.971,VALID,0,VALID,97.1833,VALID,0,VALID,19.4283,VALID,121,VALID,1.12734,
2011-02-14, 03:17:04,VALID,914.935,VALID,0,VALID,97.1757,VALID,0,VALID,19.4688,VALID,122,VALID,1.15352,
2011-02-14, 03:18:04,VALID,914.921,VALID,0,VALID,97.1757,VALID,0,VALID,19.4883,VALID,122,VALID,1.11406,
2011-02-14, 03:19:04,VALID,914.906,VALID,0,VALID,97.1986,VALID,0,VALID,19.4688,VALID,122,VALID,0.971875,
2011-02-14, 03:20:04,VALID,914.882,VALID,0,VALID,97.1909,VALID,0,VALID,19.5078,VALID,123,VALID,0.764453,
2011-02-14, 03:21:04,VALID,914.882,VALID,0,VALID,97.1833,VALID,0,VALID,19.4868,VALID,123,VALID,0.729688,
2011-02-14, 03:22:04,VALID,914.881,VALID,0,VALID,97.1757,VALID,0,VALID,19.5078,VALID,123,VALID,0.903125,
2011-02-14, 03:23:04,VALID,914.897,VALID,0,VALID,97.1604,VALID,0,VALID,19.5078,VALID,123,VALID,0.754687,
2011-02-14, 03:24:04,VALID,914.848,VALID,0,VALID,97.1604,VALID,0,VALID,19.4883,VALID,123,VALID,0.819531,
2011-02-14, 03:25:04,VALID,914.845,VALID,0,VALID,97.1528,VALID,0,VALID,19.4688,VALID,123,VALID,0.805469,
2011-02-14, 03:26:04,VALID,914.819,VALID,0,VALID,97.1681,VALID,0,VALID,19.4883,VALID,123,VALID,0.935547,
2011-02-14, 03:27:04,VALID,914.785,VALID,0,VALID,97.1757,VALID,0,VALID,19.5078,VALID,123,VALID,0.986328,
2011-02-14, 03:28:04,VALID,914.736,VALID,0,VALID,97.1833,VALID,0,VALID,19.5078,VALID,123,VALID,0.702344,
2011-02-14, 03:29:04,VALID,914.703,VALID,0,VALID,97.1757,VALID,0,VALID,19.4883,VALID,123,VALID,0.941016,
2011-02-14, 03:30:04,VALID,914.711,VALID,0,VALID,97.1909,VALID,0,VALID,19.5273,VALID,123,VALID,0.932422,
2011-02-14, 03:31:04,VALID,914.659,VALID,0,VALID,97.1986,VALID,0,VALID,19.5858,VALID,123,VALID,1.01289,
2011-02-14, 03:32:04,VALID,914.645,VALID,0,VALID,97.1986,VALID,0,VALID,19.6053,VALID,123,VALID,0.630859,
2011-02-14, 03:33:04,VALID,914.621,VALID,0,VALID,97.2138,VALID,0,VALID,19.6053,VALID,123,VALID,0.660547,
2011-02-14, 03:34:04,VALID,914.629,VALID,0,VALID,97.1909,VALID,0,VALID,19.5858,VALID,123,VALID,0.48125,
2011-02-14, 03:35:04,VALID,914.629,VALID,0,VALID,97.1757,VALID,0,VALID,19.5063,VALID,123,VALID,0.308984,
2011-02-14, 03:36:04,VALID,914.606,VALID,0,VALID,97.1299,VALID,0,VALID,19.4688,VALID,123,VALID,0.536719,
2011-02-14, 03:37:04,VALID,914.6,VALID,0,VALID,97.0994,VALID,0,VALID,19.4103,VALID,123,VALID,0.438672,
2011-02-14, 03:38:04,VALID,914.575,VALID,0,VALID,97.0994,VALID,0,VALID,19.3908,VALID,123,VALID,0.446484,
2011-02-14, 03:39:04,VALID,914.589,VALID,0,VALID,97.1299,VALID,0,VALID,19.3908,VALID,123,VALID,0.433203,
2011-02-14, 03:40:04,VALID,914.564,VALID,0,VALID,97.1833,VALID,0,VALID,19.3908,VALID,123,VALID,0.273828,
2011-02-14, 03:41:04,VALID,914.545,VALID,0,VALID,97.1986,VALID,0,VALID,19.4298,VALID,123,VALID,0.712891,
2011-02-14, 03:42:04,VALID,914.546,VALID,0,VALID,97.2062,VALID,0,VALID,19.4688,VALID,123,VALID,0.759375,
2011-02-14, 03:43:04,VALID,914.519,VALID,0,VALID,97.1986,VALID,0,VALID,19.5078,VALID,189,VALID,0.384766,